UAE770 OMDB-FACT

Flight info

Callsign UAE770
Flight time N/A
Altitude 34000
Route ANVIX R401 GIDIS G783 UKRAG/N0503F330 L710 KUKDI/N0501F340 B400 VEDET UL437 ITMAR/N0493F360 UL437 VBU UP305 APNEX/N0488F380 UP305 XOXAM UT969 ESPUV DCT UDGIM UQ60 NEXIT UQ23 OKLOK DCT ERDAS ERDAS1C
Aircraft B77W/H-SDE1E2E3FGHIJ2J3J4J5M1RWXY/LB1D1

Departure

Time 2026-05-03 23:09
Airport Dubai International Airport (OMDB)

Arrival

Time N/A
Airport Cape Town International Airport (FACT)
Time Latitude Longitude Altitude Speed Heading
2026-05-03 22:40 25.25197 55.35716 26 ft 0 kts 211°
2026-05-03 22:57 25.25209 55.35724 26 ft 3 kts 211°
2026-05-03 22:57 25.25226 55.35736 26 ft 3 kts 211°
2026-05-03 22:58 25.25243 55.35747 26 ft 3 kts 211°
2026-05-03 22:58 25.25260 55.35759 26 ft 3 kts 216°
2026-05-03 22:58 25.25273 55.35771 26 ft 3 kts 240°
2026-05-03 22:58 25.25279 55.35784 26 ft 3 kts 270°
2026-05-03 22:59 25.25276 55.35800 26 ft 1 kts 301°
2026-05-03 22:59 25.25275 55.35800 26 ft 0 kts 302°
2026-05-03 23:04 25.25276 55.35800 26 ft 0 kts 302°
2026-05-03 23:04 25.25279 55.35794 26 ft 2 kts 301°
2026-05-03 23:04 25.25291 55.35772 26 ft 5 kts 301°
2026-05-03 23:04 25.25316 55.35729 26 ft 8 kts 305°
2026-05-03 23:05 25.25365 55.35693 26 ft 10 kts 355°
2026-05-03 23:05 25.25438 55.35722 26 ft 13 kts 29°
2026-05-03 23:05 25.25510 55.35771 26 ft 3 kts 32°
2026-05-03 23:05 25.25511 55.35771 26 ft 0 kts 32°
2026-05-03 23:06 25.25514 55.35774 26 ft 2 kts 32°
2026-05-03 23:07 25.25547 55.35797 26 ft 9 kts 32°
2026-05-03 23:07 25.25590 55.35868 26 ft 14 kts 96°
2026-05-03 23:07 25.25559 55.35939 26 ft 0 kts 118°
2026-05-03 23:08 25.25557 55.35943 26 ft 5 kts 119°
2026-05-03 23:08 25.25453 55.36134 26 ft 63 kts 122°
2026-05-03 23:08 25.25110 55.36756 28 ft 128 kts 121°
2026-05-03 23:09 25.24542 55.37770 27 ft 181 kts 121°
2026-05-03 23:09 25.23816 55.39078 59 ft 215 kts 122°
2026-05-03 23:09 25.23064 55.40451 842 ft 198 kts 121°
2026-05-03 23:09 25.22367 55.41793 1394 ft 205 kts 121°
2026-05-03 23:10 25.21608 55.43146 1845 ft 216 kts 123°
2026-05-03 23:10 25.20787 55.44588 2226 ft 226 kts 122°
2026-05-03 23:10 25.19941 55.46085 2747 ft 232 kts 122°
2026-05-03 23:10 25.19091 55.47581 3339 ft 234 kts 123°
2026-05-03 23:11 25.18214 55.49126 3885 ft 240 kts 122°
2026-05-03 23:11 25.17337 55.50677 4528 ft 239 kts 122°